Regional Weather Roundup
Issued by NWS Wakefield, VA

Home | Current Version | Previous Version | Graphics & Text | Print | Product List | Glossary On
Versions: 1 2 3 4 5 6 7 8 9 10 11 12 13 14 15 16 17 18 19 20 21 22 23 24 25 26 27 28 29 30 31 32 33 34 35 36 37 38 39 40 41 42 43 44 45 46 47 48 49 50
373
ASUS41 KAKQ 050215
RWRAKQ

REGIONAL WEATHER ROUNDUP
NATIONAL WEATHER SERVICE WAKEFIELD VA
1000 PM EDT WED MAY 04 2016

Note: "fair" indicates few or no clouds below 12,000 feet with no
significant weather and/or obstructions to visibility. * = Denotes
station may not report precipitation (e.g., rain,snow,etc.),
thunder or fog.

VAZ042-051-052>054-056-050300-
NORTHERN VIRGINIA

CITY           SKY/WX    TMP DP  RH WIND       PRES   REMARKS
WASH NATIONAL  CLOUDY    55  52  89 NE12      29.69F
DULLES         LGT RAIN  54  50  86 E12       29.68F
FORT BELVOIR   CLOUDY    55  51  88 VRB3      29.69R
QUANTICO       CLOUDY    57  53  86 E12       29.69R
FREDERICKSBRG* CLOUDY    55  55 100 NE6       29.67R
STAFFORD*      CLOUDY    55  52  91 NE7       29.72R
WARRENTON      CLOUDY    56  50  81 E7        29.67S
CULPEPER*      CLOUDY    56  55  95 NE3       29.68R
MANASSAS*      CLOUDY    55  55 100 CALM      29.68S
LEESBURG*      RAIN      55  55 100 E6        29.69F
WINCHESTER     CLOUDY    55  54  94 CALM      29.68S
FRONT ROYAL*   CLOUDY    54  54 100 CALM      29.67R
LURAY*         CLOUDY    54  54 100 CALM      29.66S
$$

VAZ048-049-060>072-079>083-050300-
CENTRAL AND SOUTH CENTRAL VIRGINIA

CITY           SKY/WX    TMP DP  RH WIND       PRES   REMARKS
RICHMOND       CLOUDY    56  54  93 E10       29.65R
CHESTERFIELD*  CLOUDY    59  46  63 E5        29.66R
PETERSBURG*    CLOUDY    61  61 100 NE5       29.65R
HANOVER        CLOUDY    57  54  89 NE5       29.67R
TAPPAHANNOCK*  CLOUDY    57  56  99 NE5       29.67R
QUINTON*       CLOUDY    56  55  95 E7        29.65R
CHARLOTTSVILLE RAIN      57  53  86 E6        29.66R FOG
GORDONSVILLE*  CLOUDY    56  55  96 N6        29.66R
ORANGE*        CLOUDY    55  55 100 NE5       29.68R
LOUISA*        CLOUDY    61  57  88 NE6       29.64R
BUMPASS*       CLOUDY    57  55  92 E7        29.66R
FARMVILLE*     CLOUDY    62  56  82 NE5       29.62R
CREWE*         FAIR      58  58 100 E3        29.63R
FORT PICKETT*  NOT AVBL
CHASE CITY*    FAIR      56  54  92 CALM      29.63R
CLARKSVILLE*   FAIR      54  54 100 CALM      29.62R
SOUTH HILL*    FAIR      57  53  86 CALM      29.68R
LAWRENCEVILLE* CLOUDY    60  56  88 NE3       29.63R
EMPORIA*       MOCLDY    61  59  94 E8        29.65R
$$

VAZ088>098-050300-
SOUTHEAST VIRGINIA

CITY           SKY/WX    TMP DP  RH WIND       PRES   REMARKS
NORFOLK        CLOUDY    55  51  86 E13       29.66R
VIRGINIA BEACH CLOUDY    57  51  80 E15       29.66R
NORFOLK NAVAL  CLOUDY    56  53  90 E12       29.68R
WEST POINT*    CLOUDY    56  54  92 NE7       29.68R
SALUDA*        CLOUDY    56  55  94 E7        29.67R
NEWPORT NEWS   CLOUDY    58  56  93 E9        29.66R
LANGLEY AFB    CLOUDY    57  55  94 E9        29.66R
FORT EUSTIS    CLOUDY    59  54  85 NE9       29.64R
WILLIAMSBURG*  CLOUDY    57  57 100 CALM      29.67R
HR EXEC AP*    CLOUDY    57  54  88 E5        29.68R
FRANKLIN*      CLOUDY    58  55  89 E7        29.65R
US460-WAKEFLD  CLOUDY    58  55  90 NE7       29.66R
$$

VAZ020-022-025-037-045-050300-
WEST CENTRAL AND SOUTHWEST VIRGINIA

CITY           SKY/WX    TMP DP  RH WIND       PRES   REMARKS
STAUNTON*      CLOUDY    56  51  83 NE6       29.68S
WAYNESBORO*    CLOUDY    54  47  77 N7        29.66R
HOT SPRINGS VA CLOUDY    49  39  67 W7        29.67S
LYNCHBURG      FAIR      54  46  74 CALM      29.64R
DANVILLE       FAIR      52  50  93 CALM      29.63R
SOUTH BOSTON*  FAIR      55  53  95 CALM      29.63R
MARTINSVILLE   CLOUDY    51  49  93 CALM      29.66S
ROANOKE        CLOUDY    58  42  55 NE3       29.66R
BLACKSBURG     CLOUDY    55  43  64 NW7       29.71R
DUBLIN*        CLOUDY    57  42  57 NW5       29.69R
MARION*        MOCLDY    53  41  64 NW8       29.72R
HILLSVILLE*    MOCLDY    54  40  61 W6        29.67S
RICHLANDS*     CLOUDY    47  35  61 CALM      29.72R
WISE*          LGT RAIN  46  41  81 SW16      29.74R
ABINGDON*      RAIN      54  44  67 W7        29.72R
$$

MDZ021>025-VAZ099-100-050300-
SOUTHERN MARYLAND AND THE DELMARVA PENINSULA

CITY           SKY/WX    TMP DP  RH WIND       PRES   REMARKS
PATUXENT RIVER CLOUDY    54  51  90 E10       29.67R
BAY BRIDGE APT NOT AVBL
LEONARDTOWN    CLOUDY    54  52  94 NE3       29.68S
DOVER          CLOUDY    50  50 100 NE10      29.71S
GEORGETOWN     CLOUDY    50  47  89 NE12      29.71R
EASTON         CLOUDY   N/A N/A N/A NE9       29.74S HAZE
CAMBRIDGE      CLOUDY    52  50  93 E9        29.69R
SALISBURY      CLOUDY    51  49  92 NE10G21   29.70R
OCEAN CITY     CLOUDY    50  48  93 NE13G21   29.70R
WALLOPS ISLAND CLOUDY    52  50  93 NE13      29.69R
ACCOMACK*      CLOUDY    52  32  46 E14       29.67R
$$

NCZ012>017-030>032-050300-
NORTH CENTRAL AND EASTERN NORTH CAROLINA

CITY           SKY/WX    TMP DP  RH WIND       PRES   REMARKS
ROANOKE RAPIDS FAIR      55  55 100 CALM      29.62R
RALEIGH        MOCLDY    59  51  75 CALM      29.65R
ELIZABETH CITY CLOUDY    59  56  89 NE15      29.66R
AHOSKIE*       PTCLDY    62  59  91 NE6       29.63R
EDENTON*       CLOUDY    62  62 100 E7        29.65R
CURRITUCK*     NOT AVBL
KILL DEVIL HLS CLOUDY    56  56  97 NE7       29.64R
MANTEO         CLOUDY    57  57  98 NE13G18   29.65R
CAPE HATTERAS  CLOUDY    61  60  97 NE8G16    29.62R
TARBORO*       FAIR      60  59  96 CALM      29.63R FOG
GOLDSBORO      MOCLDY    64  60  87 CALM      29.61R
WASHINGTON     LGT RAIN  65  61  85 CALM      29.62R
GREENVILLE     PTCLDY    63  61  94 CALM      29.66R
NEW BERN       PTCLDY    66  64  93 NE6       29.62R
WILMINGTON     MOCLDY    66  60  81 CALM      29.61R
$$

VAZ048-050300-
ELSEWHERE

CITY           SKY/WX    TMP DP  RH WIND       PRES   REMARKS
HARRISBURG PA  DRIZZLE   52  49  89 E7        29.72S
BALTIMORE      CLOUDY    53  49  86 NE14      29.70S
ANNAPOLIS      CLOUDY    53  50  89 NE9       29.70S
ANDREWS AFB    CLOUDY    52  51  94 NE10      29.68S
PHILADELPHIA   CLOUDY    51  45  79 E9        29.74F
HENDERSON NC   CLEAR     58  53  84 CALM      29.64R
GREENSBORO     PTCLDY    58  46  64 CALM      29.63S
ROCKY MOUNT    CLOUDY    60  58  92 CALM      29.62R
$$

VAZ100-050300-
MARINE

STATION/POSITION TIME  TEMP    WIND        PRES    WAVE   SWELL
                       AIR SEA DIR/SP/G            HT/PER HT/PER
                 (UTC) (F)     (DEG/KT/KT) (MB)    (FT/S) (FT/S)
BRANDYWINE LGT   0100                      1005.8R
CAPE MAY NJ      0100      58              1005.1S
LEWES DE         0100      56              1005.8R
15NM E FENWICK I 0150   50 51              1004.9R   6/ 6
OCEAN-CITY-INLET 0100      55              1004.4R
WACHAPREAGUE VA  0100      62              1003.4F
THOMAS POINT MD  0200   52 59   60/ 13/ 15 1006.8F
GOOSES REEF MD   0200   55 59   60/ 14/ 16 1005.9F   1/ 2
COVE POINT MD    0100                      1005.2F
SOLOMONS ISLAND  0100      61                N/A
BISHOPS HEAD MD  0100      61              1004.3R
PINEY POINT MD   0124           70/  4/  6   N/A
POTOMAC MD       0200   56 61   60/ 14/ 16 1003.7R   1/ 2
CAMBRIDGE MD     0100      62              1004.3F
LEWISETTA VA     0100      63              1004.0F
RAPPAHANNOCK LGT 0100                      1004.1R
STINGRAY PT      0200   57 62   70/ 12/ 14 1005.0R   2/ 3
YORK RVR RNG VA  0100                      1002.8F
YORKTOWN VA      0100      64              1003.1F
JAMESTOWN VA     0200   57 68   60/  4/  8   N/A
DOMINION TERM VA 0100                      1003.3F
KIPTOPEKE VA     0100      62                N/A
CHES BAY BRIDGE  0100      60              1003.2S
CAPE HENRY VA    0106   54                   N/A
CHESAPEAKE LGHT  0100   52      50/ 20/ 22 1004.3F
WILLOUBY STN VA  0100                      1004.3F
CAPE HENRY BUOY  0112      56                N/A     4/ 5
CAPE CHARLES BUO 0156      57                N/A     4/ 5   2/ 9
OFFSHORE WE BUOY 0151      56                N/A     4/ 5   2/ 8
64NM E OF VA BCH 0150   53 54   20/ 14/ 16 1003.6R   3/ 8   2/ 8
DUCK PIER NC     0100      60              1003.2R
44100 DUCK FRF   0154      59                N/A     3/ 4
44056 DUCK FRF   0111      59                N/A     3/ 6
OREGON INLET NC  0100      66              1002.8R
HATTERAS NC      0100      70              1002.0R
DIAMOND SHLS NC  0150   64 70   30/ 12/ 16 1002.5R   4/ 7   3/ 7
CAPE LOOKOUT NC  0200   69      20/  5/  6 1001.8R
$$




USA.gov is the U.S. government's official web portal to all federal, state and local government web resources and services.